Regional Weather Roundup
Issued by NWS

Home | Current Version | Previous Version | Graphics & Text | Print | Product List | Glossary Off
Versions: 1 2 3 4 5 6 7 8 9 10 11 12 13 14 15 16 17 18 19 20 21 22 23 24 25 26 27 28 29 30 31 32 33 34 35 36 37 38 39 40 41 42 43 44 45 46 47 48 49 50

000
ASUS43 KTOP 232059
RWRKS

WEATHER ROUNDUP FOR KANSAS
NATIONAL WEATHER SERVICE GOODLAND KS
400 PM CDT SUN JUL 23 2017

NOTE:  "FAIR" INDICATES FEW OR NO CLOUDS BELOW 12,000 FEET WITH NO
SIGNIFICANT WEATHER AND/OR OBSTRUCTIONS TO VISIBILITY.

KSZ001>006-013>018-027>032-041>047-232200-
NORTHWEST KANSAS

CITY           SKY/WX    TMP DP  RH WIND       PRES   REMARKS
GOODLAND       SUNNY     90  54  29 SE8       30.09F
HAYS             N/A     95  60  31 E12G17    29.98F HX  95
HILL CITY      SUNNY     95  63  34 E10       30.00F HX  96
RUSSELL        SUNNY     96  59  29 NE9       29.96F HX  95
$$

KSZ061>065-074>080-084>089-232200-
SOUTHWEST KANSAS

CITY           SKY/WX    TMP DP  RH WIND       PRES   REMARKS
DODGE CITY     SUNNY     91  65  41 NE8       30.02F
ELKHART          N/A     87  57  35 E9          N/A
GARDEN CITY    SUNNY     91  60  35 E9        30.03F
LIBERAL        SUNNY     90  63  40 NE13      30.03F
$$

KSZ066>073-081>083-090>101-232200-
SOUTHEAST KANSAS

CITY           SKY/WX    TMP DP  RH WIND       PRES   REMARKS
CHANUTE        MOSUNNY   89  71  55 W5        29.92F HX  95
COFFEYVILLE    SUNNY     93  68  43 NW8       29.90F HX  97
HUTCHINSON     MOSUNNY   94  68  42 NE8       29.95F HX  98
MEDICINE LODGE   N/A     94  65  38 VRB5      29.94F HX  96
NEWTON         MOSUNNY   90  69  50 SE3       29.96F
PARSONS        MOSUNNY   91  68  46 MISG      29.92F HX  95
WICHITA INTL   MOSUNNY   93  69  45 NW10      29.93F HX  98
WICHITA JABRA  MOSUNNY   91  68  46 W6        29.94F HX  95
WINFIELD       PTSUNNY   93  65  39 NE8       29.93F HX  95
$$

KSZ007>012-019>026-033>040-048>060-102>105-232200-
NORTHEAST KANSAS

CITY           SKY/WX    TMP DP  RH WIND       PRES   REMARKS
CONCORDIA      SUNNY     94  68  42 N10       29.95F HX  98
EMPORIA        PTSUNNY   90  69  50 CALM      29.93F
LAWRENCE       MOSUNNY   92  74  55 VRB3      29.90F HX 101
MANHATTAN      MOSUNNY   96  68  39 VRB5      29.92F HX 101
OLATHE IND     MOSUNNY   89  73  59 CALM      29.92F HX  97
OLATHE EXE     MOSUNNY   88  74  63 W6        29.91F HX  96
SALINA         PTSUNNY   96  66  37 E7        29.94F HX  99
TOPEKA BILLARD MOSUNNY   93  71  48 CALM      29.91F HX 100
TOPEKA FORBES  SUNNY     93  71  48 N5        29.93F HX 100
$$



USA.gov is the U.S. government's official web portal to all federal, state and local government web resources and services.